| time (UTC) | temp C | wind direction | speed KPH | gust KPH | rain 1hr cm | rain 24hr cm | rain mn cm | humidity % | barometer mb |
| 20260906162509 | 30 | 292 | 0.0 | 3.2 | 0.00 | 0.51 | 0.03 | 83 | 1008.8 |
| 20260906162004 | 29 | 292 | 0.0 | 4.8 | 0.00 | 0.51 | 0.03 | 83 | 1008.9 |
| 20260906161503 | 29 | 292 | 0.0 | 0.0 | 0.00 | 0.51 | 0.03 | 84 | 1009.0 |
| 20260906161001 | 28 | 292 | 0.0 | 0.0 | 0.00 | 0.51 | 0.03 | 85 | 1009.1 |
| 20260906160600 | 28 | 292 | 0.0 | 0.0 | 0.00 | 0.51 | 0.03 | 82 | 1009.1 |
| 20260906160059 | 28 | 292 | 0.0 | 0.0 | 0.00 | 0.51 | 0.03 | 84 | 1009.2 |
| 20260906155557 | 28 | 292 | 0.0 | 1.6 | 0.00 | 0.51 | 0.03 | 84 | 1009.2 |
| 20260906155057 | 28 | 292 | 0.0 | 1.6 | 0.00 | 0.51 | 0.03 | 84 | 1009.2 |
| 20260906154555 | 28 | 292 | 0.0 | 0.0 | 0.00 | 0.51 | 0.03 | 86 | 1009.2 |
| 20260906154053 | 28 | 292 | 0.0 | 0.0 | 0.00 | 0.51 | 0.03 | 85 | 1009.2 |
| 20260906153555 | 28 | 292 | 0.0 | 1.6 | 0.00 | 0.51 | 0.03 | 84 | 1009.2 |
| 20260906153051 | 28 | 292 | 0.0 | 4.8 | 0.00 | 0.51 | 0.03 | 87 | 1009.2 |
| 20260906152552 | 27 | 292 | 0.0 | 4.8 | 0.00 | 0.51 | 0.03 | 85 | 1009.1 |
| 20260906152048 | 27 | 292 | 0.0 | 0.0 | 0.00 | 0.51 | 0.03 | 89 | 1009.0 |
| 20260906151547 | 27 | 292 | 0.0 | 0.0 | 0.00 | 0.51 | 0.03 | 89 | 1009.1 |
| 20260906151045 | 27 | 292 | 0.0 | 0.0 | 0.00 | 0.51 | 0.03 | 91 | 1009.2 |
| 20260906150544 | 27 | 292 | 0.0 | 0.0 | 0.00 | 0.51 | 0.03 | 91 | 1009.2 |
| 20260906150054 | 26 | 292 | 0.0 | 0.0 | 0.00 | 0.51 | 0.03 | 93 | 1009.2 |
| 20260906145541 | 25 | 292 | 0.0 | 0.0 | 0.00 | 0.51 | 0.03 | 96 | 1009.2 |
| 20260906145040 | 25 | 195 | 0.0 | 0.0 | 0.00 | 0.51 | 0.03 | 97 | 1009.2 |
| 20260906144555 | 25 | 195 | 0.0 | 0.0 | 0.00 | 0.51 | 0.03 | 97 | 1009.1 |
| 20260906144038 | 25 | 195 | 0.0 | 0.0 | 0.00 | 0.51 | 0.03 | 97 | 1009.1 |
| 20260906143538 | 24 | 195 | 0.0 | 0.0 | 0.00 | 0.51 | 0.03 | 97 | 1009.2 |
| 20260906143039 | 24 | 195 | 0.0 | 0.0 | 0.00 | 0.51 | 0.03 | 97 | 1009.2 |
| 20260906142536 | 24 | 195 | 0.0 | 0.0 | 0.00 | 0.51 | 0.03 | 97 | 1009.1 |
| 20260906142035 | 24 | 195 | 0.0 | 0.0 | 0.00 | 0.51 | 0.03 | 97 | 1009.2 |
| 20260906141542 | 23 | 195 | 0.0 | 0.0 | 0.00 | 0.51 | 0.03 | 97 | 1009.3 |
| 20260906141036 | 23 | 195 | 0.0 | 0.0 | 0.00 | 0.51 | 0.03 | 98 | 1009.4 |
| 20260906140531 | 23 | 195 | 0.0 | 0.0 | 0.00 | 0.51 | 0.03 | 97 | 1009.4 |
| 20260906140031 | 23 | 195 | 0.0 | 0.0 | 0.00 | 0.51 | 0.03 | 97 | 1009.3 |
| 20260906135531 | 23 | 195 | 0.0 | 0.0 | 0.00 | 0.51 | 0.03 | 98 | 1009.2 |
| 20260906135031 | 23 | 195 | 0.0 | 0.0 | 0.00 | 0.51 | 0.03 | 98 | 1009.2 |
| 20260906134529 | 23 | 195 | 0.0 | 0.0 | 0.00 | 0.51 | 0.03 | 98 | 1009.2 |
| 20260906134029 | 23 | 195 | 0.0 | 0.0 | 0.00 | 0.51 | 0.03 | 98 | 1009.3 |
| 20260906133527 | 22 | 195 | 0.0 | 0.0 | 0.00 | 0.51 | 0.03 | 98 | 1009.3 |
| 20260906133025 | 22 | 195 | 0.0 | 0.0 | 0.00 | 0.51 | 0.03 | 98 | 1009.3 |
| 20260906132526 | 22 | 195 | 0.0 | 0.0 | 0.00 | 0.51 | 0.03 | 97 | 1009.3 |
| 20260906132031 | 22 | 195 | 0.0 | 0.0 | 0.00 | 0.51 | 0.03 | 98 | 1009.3 |
| 20260906131527 | 22 | 195 | 0.0 | 0.0 | 0.00 | 0.51 | 0.03 | 98 | 1009.3 |
| 20260906131022 | 22 | 195 | 0.0 | 0.0 | 0.00 | 0.51 | 0.03 | 98 | 1009.1 |
| 20260906130522 | 22 | 195 | 0.0 | 0.0 | 0.00 | 0.51 | 0.03 | 98 | 1009.1 |
| 20260906130035 | 22 | 195 | 0.0 | 0.0 | 0.00 | 0.51 | 0.03 | 98 | 1009.1 |
| 20260906125522 | 22 | 195 | 0.0 | 0.0 | 0.00 | 0.51 | 0.03 | 97 | 1009.2 |
| 20260906125023 | 21 | 195 | 0.0 | 0.0 | 0.00 | 0.51 | 0.03 | 98 | 1009.1 |
| 20260906124520 | 21 | 195 | 0.0 | 0.0 | 0.00 | 0.51 | 0.03 | 97 | 1009.0 |
| 20260906124020 | 21 | 195 | 0.0 | 0.0 | 0.00 | 0.51 | 0.03 | 97 | 1008.9 |
| 20260906123520 | 21 | 195 | 0.0 | 0.0 | 0.00 | 0.51 | 0.03 | 97 | 1009.0 |
| 20260906123019 | 21 | 195 | 0.0 | 0.0 | 0.00 | 0.51 | 0.03 | 97 | 1008.9 |
| 20260906122519 | 21 | 195 | 0.0 | 0.0 | 0.00 | 0.51 | 0.03 | 97 | 1008.8 |
| 20260906122019 | 21 | 195 | 0.0 | 0.0 | 0.00 | 0.51 | 0.03 | 97 | 1008.8 |
| 20260906121519 | 21 | 195 | 0.0 | 0.0 | 0.00 | 0.51 | 0.03 | 97 | 1008.9 |
| 20260906121019 | 21 | 195 | 0.0 | 0.0 | 0.00 | 0.51 | 0.03 | 97 | 1008.9 |
| 20260906120520 | 21 | 195 | 0.0 | 0.0 | 0.00 | 0.51 | 0.03 | 97 | 1008.8 |
| 20260906120019 | 21 | 195 | 0.0 | 0.0 | 0.00 | 0.51 | 0.03 | 97 | 1008.7 |
| 20260906115521 | 21 | 195 | 0.0 | 0.0 | 0.00 | 0.56 | 0.03 | 97 | 1008.7 |
| 20260906115019 | 21 | 195 | 0.0 | 0.0 | 0.00 | 0.56 | 0.03 | 97 | 1008.6 |
| 20260906114532 | 21 | 195 | 0.0 | 0.0 | 0.00 | 0.56 | 0.03 | 97 | 1008.6 |
| 20260906114021 | 21 | 195 | 0.0 | 0.0 | 0.00 | 0.56 | 0.03 | 97 | 1008.6 |
| 20260906113519 | 21 | 195 | 0.0 | 0.0 | 0.00 | 0.56 | 0.03 | 97 | 1008.6 |
| 20260906113017 | 21 | 195 | 0.0 | 0.0 | 0.00 | 0.56 | 0.03 | 97 | 1008.6 |
| 20260906112517 | 21 | 195 | 0.0 | 0.0 | 0.00 | 0.56 | 0.03 | 97 | 1008.6 |
| 20260906112017 | 21 | 195 | 0.0 | 0.0 | 0.00 | 0.56 | 0.03 | 97 | 1008.6 |
| 20260906111517 | 21 | 195 | 0.0 | 0.0 | 0.00 | 0.56 | 0.03 | 97 | 1008.7 |
| 20260906111016 | 21 | 195 | 0.0 | 0.0 | 0.00 | 0.56 | 0.03 | 97 | 1008.7 |
| 20260906110516 | 21 | 195 | 0.0 | 0.0 | 0.00 | 0.56 | 0.03 | 97 | 1008.7 |
| 20260906110021 | 21 | 195 | 0.0 | 0.0 | 0.00 | 0.56 | 0.03 | 97 | 1008.7 |
| 20260906105516 | 21 | 195 | 0.0 | 0.0 | 0.00 | 0.61 | 0.03 | 97 | 1008.7 |
| 20260906105018 | 21 | 195 | 0.0 | 0.0 | 0.00 | 0.61 | 0.03 | 97 | 1008.6 |
| 20260906104519 | 21 | 195 | 0.0 | 0.0 | 0.00 | 0.61 | 0.03 | 97 | 1008.6 |
| 20260906104015 | 21 | 195 | 0.0 | 0.0 | 0.00 | 0.61 | 0.03 | 97 | 1008.6 |
| 20260906103515 | 21 | 195 | 0.0 | 0.0 | 0.00 | 0.61 | 0.03 | 97 | 1008.5 |
| 20260906103014 | 21 | 195 | 0.0 | 0.0 | 0.00 | 0.61 | 0.03 | 97 | 1008.5 |
| 20260906102514 | 21 | 195 | 0.0 | 0.0 | 0.00 | 0.61 | 0.03 | 97 | 1008.6 |
| 20260906102016 | 21 | 195 | 0.0 | 0.0 | 0.00 | 0.61 | 0.03 | 97 | 1008.6 |
| 20260906101514 | 21 | 195 | 0.0 | 0.0 | 0.00 | 0.61 | 0.03 | 97 | 1008.6 |
| 20260906101015 | 21 | 195 | 0.0 | 0.0 | 0.00 | 0.61 | 0.03 | 97 | 1008.4 |
| 20260906100513 | 21 | 195 | 0.0 | 0.0 | 0.00 | 0.61 | 0.03 | 97 | 1008.4 |
| 20260906100012 | 21 | 195 | 0.0 | 0.0 | 0.00 | 0.61 | 0.03 | 97 | 1008.4 |
| 20260906095512 | 21 | 195 | 0.0 | 0.0 | 0.00 | 0.61 | 0.03 | 97 | 1008.4 |
| 20260906095013 | 21 | 195 | 0.0 | 0.0 | 0.00 | 0.61 | 0.03 | 97 | 1008.5 |
| 20260906094525 | 21 | 195 | 0.0 | 0.0 | 0.00 | 0.61 | 0.03 | 97 | 1008.6 |
| 20260906094012 | 21 | 195 | 0.0 | 0.0 | 0.00 | 0.61 | 0.03 | 97 | 1008.6 |
| 20260906093511 | 21 | 195 | 0.0 | 0.0 | 0.00 | 0.61 | 0.03 | 97 | 1008.5 |
| 20260906093013 | 21 | 195 | 0.0 | 0.0 | 0.00 | 0.61 | 0.03 | 97 | 1008.4 |
| 20260906092510 | 21 | 195 | 0.0 | 0.0 | 0.00 | 0.61 | 0.03 | 97 | 1008.4 |
| 20260906092014 | 21 | 195 | 0.0 | 0.0 | 0.00 | 0.61 | 0.03 | 97 | 1008.5 |
| 20260906091509 | 21 | 195 | 0.0 | 0.0 | 0.00 | 0.61 | 0.03 | 97 | 1008.4 |
| 20260906091011 | 21 | 195 | 0.0 | 0.0 | 0.00 | 0.61 | 0.03 | 97 | 1008.4 |
| 20260906090513 | 21 | 195 | 0.0 | 0.0 | 0.00 | 0.61 | 0.03 | 97 | 1008.4 |
| 20260906090010 | 21 | 195 | 0.0 | 0.0 | 0.00 | 0.61 | 0.03 | 97 | 1008.4 |
| 20260906085510 | 21 | 195 | 0.0 | 0.0 | 0.00 | 0.71 | 0.03 | 97 | 1008.5 |
| 20260906085009 | 21 | 195 | 0.0 | 0.0 | 0.00 | 0.71 | 0.03 | 97 | 1008.5 |
| 20260906084512 | 21 | 195 | 0.0 | 0.0 | 0.00 | 0.71 | 0.03 | 97 | 1008.5 |
| 20260906084013 | 21 | 195 | 0.0 | 0.0 | 0.00 | 0.71 | 0.03 | 97 | 1008.4 |
| 20260906083508 | 21 | 195 | 0.0 | 0.0 | 0.00 | 0.71 | 0.03 | 97 | 1008.4 |
| 20260906083007 | 21 | 195 | 0.0 | 0.0 | 0.00 | 0.71 | 0.03 | 97 | 1008.4 |
| 20260906082507 | 21 | 195 | 0.0 | 0.0 | 0.00 | 0.71 | 0.03 | 97 | 1008.3 |
| 20260906082009 | 21 | 195 | 0.0 | 0.0 | 0.00 | 0.71 | 0.03 | 97 | 1008.3 |
| 20260906081522 | 21 | 195 | 0.0 | 0.0 | 0.00 | 0.71 | 0.03 | 97 | 1008.2 |
| 20260906081007 | 21 | 195 | 0.0 | 0.0 | 0.00 | 0.71 | 0.03 | 97 | 1008.3 |
| 20260906080507 | 21 | 195 | 0.0 | 0.0 | 0.00 | 0.71 | 0.03 | 97 | 1008.3 |
| 20260906080005 | 21 | 195 | 0.0 | 0.0 | 0.00 | 0.71 | 0.03 | 97 | 1008.3 |
| 20260906075504 | 21 | 195 | 0.0 | 0.0 | 0.00 | 0.71 | 0.03 | 97 | 1008.2 |
| 20260906075004 | 21 | 195 | 0.0 | 0.0 | 0.00 | 0.71 | 0.03 | 97 | 1008.2 |
| 20260906074504 | 21 | 195 | 0.0 | 0.0 | 0.00 | 0.71 | 0.03 | 97 | 1008.3 |
| 20260906074003 | 21 | 195 | 0.0 | 0.0 | 0.00 | 0.71 | 0.03 | 97 | 1008.3 |
| 20260906073502 | 21 | 195 | 0.0 | 0.0 | 0.00 | 0.71 | 0.03 | 97 | 1008.3 |
| 20260906073001 | 21 | 195 | 0.0 | 0.0 | 0.00 | 0.71 | 0.03 | 97 | 1008.3 |
| 20260906072502 | 21 | 195 | 0.0 | 0.0 | 0.00 | 0.71 | 0.03 | 97 | 1008.2 |
| 20260906072002 | 21 | 195 | 0.0 | 0.0 | 0.00 | 0.71 | 0.03 | 97 | 1008.2 |
| 20260906071502 | 21 | 195 | 0.0 | 0.0 | 0.00 | 0.71 | 0.03 | 97 | 1008.4 |
| 20260906071104 | 21 | 195 | 0.0 | 0.0 | 0.00 | 0.71 | 0.03 | 97 | 1008.4 |
| 20260906070600 | 21 | 195 | 0.0 | 0.0 | 0.00 | 0.71 | 0.03 | 97 | 1008.5 |
| 20260906065600 | 21 | 195 | 0.0 | 0.0 | 0.00 | 0.71 | 0.03 | 97 | 1008.3 |
| 20260906065058 | 21 | 195 | 0.0 | 0.0 | 0.00 | 0.71 | 0.03 | 97 | 1008.3 |
| 20260906064557 | 21 | 195 | 0.0 | 0.0 | 0.00 | 0.71 | 0.03 | 97 | 1008.3 |
| 20260906064057 | 21 | 195 | 0.0 | 0.0 | 0.00 | 0.71 | 0.03 | 97 | 1008.2 |
| 20260906063557 | 21 | 195 | 0.0 | 0.0 | 0.00 | 0.71 | 0.03 | 97 | 1008.3 |
| 20260906063055 | 21 | 195 | 0.0 | 0.0 | 0.00 | 0.71 | 0.03 | 97 | 1008.4 |
| 20260906062553 | 21 | 195 | 0.0 | 0.0 | 0.00 | 0.71 | 0.03 | 97 | 1008.3 |
| 20260906062057 | 21 | 195 | 0.0 | 0.0 | 0.00 | 0.71 | 0.03 | 97 | 1008.4 |
| 20260906061552 | 21 | 195 | 0.0 | 0.0 | 0.00 | 0.71 | 0.03 | 97 | 1008.5 |
| 20260906061051 | 21 | 195 | 0.0 | 0.0 | 0.00 | 0.71 | 0.03 | 97 | 1008.5 |
| 20260906060552 | 21 | 195 | 0.0 | 0.0 | 0.00 | 0.71 | 0.03 | 97 | 1008.6 |
| 20260906060049 | 21 | 195 | 0.0 | 0.0 | 0.00 | 0.71 | 0.03 | 97 | 1008.8 |
| 20260906055551 | 21 | 195 | 0.0 | 0.0 | 0.00 | 0.71 | 0.03 | 97 | 1009.0 |
| 20260906055048 | 21 | 195 | 0.0 | 0.0 | 0.00 | 0.71 | 0.03 | 97 | 1009.0 |
| 20260906054547 | 21 | 195 | 0.0 | 0.0 | 0.00 | 0.71 | 0.03 | 97 | 1009.1 |
| 20260906054049 | 21 | 195 | 0.0 | 0.0 | 0.00 | 0.71 | 0.03 | 97 | 1009.2 |
| 20260906053544 | 21 | 195 | 0.0 | 0.0 | 0.00 | 0.71 | 0.03 | 97 | 1009.2 |
| 20260906053043 | 21 | 195 | 0.0 | 0.0 | 0.00 | 0.71 | 0.03 | 97 | 1009.2 |
| 20260906052545 | 21 | 195 | 0.0 | 0.0 | 0.03 | 0.71 | 0.03 | 97 | 1009.2 |
| 20260906052044 | 21 | 195 | 0.0 | 0.0 | 0.03 | 0.71 | 0.03 | 97 | 1009.2 |
| 20260906051542 | 21 | 195 | 0.0 | 0.0 | 0.03 | 0.71 | 0.03 | 97 | 1009.1 |
| 20260906051047 | 21 | 195 | 0.0 | 0.0 | 0.03 | 0.71 | 0.03 | 97 | 1009.2 |
| 20260906050543 | 22 | 195 | 0.0 | 0.0 | 0.03 | 0.71 | 0.03 | 97 | 1009.2 |
| 20260906050041 | 22 | 195 | 0.0 | 0.0 | 0.03 | 0.71 | 0.03 | 97 | 1009.3 |
| 20260906045540 | 22 | 195 | 0.0 | 0.0 | 0.03 | 0.81 | 0.03 | 97 | 1009.3 |
| 20260906045039 | 22 | 195 | 0.0 | 0.0 | 0.03 | 0.81 | 0.03 | 97 | 1009.3 |
| 20260906044543 | 21 | 195 | 0.0 | 0.0 | 0.03 | 0.81 | 0.03 | 97 | 1009.2 |
| 20260906044039 | 21 | 195 | 0.0 | 0.0 | 0.03 | 0.81 | 0.03 | 96 | 1009.3 |
| 20260906043537 | 21 | 195 | 0.0 | 0.0 | 0.03 | 0.81 | 0.03 | 96 | 1009.2 |
| 20260906043043 | 22 | 195 | 0.0 | 0.0 | 0.03 | 0.81 | 0.03 | 96 | 1009.2 |
| 20260906042535 | 22 | 195 | 0.0 | 0.0 | 0.00 | 0.79 | 0.00 | 96 | 1009.1 |
| 20260906042035 | 22 | 195 | 0.0 | 0.0 | 0.00 | 0.79 | 0.00 | 96 | 1009.1 |
| 20260906041537 | 22 | 195 | 0.0 | 0.0 | 0.00 | 0.79 | 0.00 | 97 | 1009.1 |
| 20260906041035 | 22 | 195 | 0.0 | 0.0 | 0.00 | 0.79 | 0.00 | 97 | 1009.1 |
| 20260906040535 | 22 | 195 | 0.0 | 0.0 | 0.00 | 0.79 | 0.00 | 96 | 1009.1 |
| 20260906040035 | 22 | 195 | 0.0 | 0.0 | 0.00 | 0.79 | 0.00 | 96 | 1009.1 |
| 20260906035533 | 22 | 195 | 0.0 | 0.0 | 0.00 | 0.79 | 0.79 | 96 | 1009.0 |
| 20260906035031 | 22 | 195 | 0.0 | 0.0 | 0.00 | 0.79 | 0.79 | 96 | 1009.1 |
| 20260906034531 | 22 | 195 | 0.0 | 0.0 | 0.00 | 0.79 | 0.79 | 96 | 1009.1 |
| 20260906034030 | 22 | 195 | 0.0 | 0.0 | 0.00 | 0.79 | 0.79 | 96 | 1009.1 |
| 20260906033530 | 22 | 195 | 0.0 | 0.0 | 0.00 | 0.79 | 0.79 | 96 | 1009.1 |
| 20260906033031 | 22 | 195 | 0.0 | 0.0 | 0.00 | 0.79 | 0.79 | 96 | 1009.2 |
| 20260906032529 | 22 | 195 | 0.0 | 0.0 | 0.00 | 0.79 | 0.79 | 96 | 1009.3 |
| 20260906032030 | 22 | 195 | 0.0 | 0.0 | 0.00 | 0.79 | 0.79 | 96 | 1009.3 |
| 20260906031543 | 22 | 195 | 0.0 | 0.0 | 0.00 | 0.79 | 0.79 | 96 | 1009.2 |
| 20260906031029 | 22 | 195 | 0.0 | 0.0 | 0.00 | 0.79 | 0.79 | 96 | 1009.6 |
| 20260906030529 | 22 | 195 | 0.0 | 0.0 | 0.00 | 0.79 | 0.79 | 96 | 1009.6 |
| 20260906030029 | 22 | 195 | 0.0 | 0.0 | 0.00 | 0.79 | 0.79 | 96 | 1009.7 |
| 20260906025534 | 22 | 195 | 0.0 | 0.0 | 0.00 | 0.79 | 0.79 | 96 | 1009.8 |
| 20260906025029 | 22 | 195 | 0.0 | 0.0 | 0.00 | 0.79 | 0.79 | 96 | 1009.8 |
| 20260906024529 | 22 | 195 | 0.0 | 0.0 | 0.00 | 0.79 | 0.79 | 96 | 1009.7 |
| 20260906024032 | 22 | 195 | 0.0 | 0.0 | 0.00 | 0.79 | 0.79 | 96 | 1009.5 |
| 20260906023529 | 22 | 195 | 0.0 | 0.0 | 0.00 | 0.79 | 0.79 | 96 | 1009.6 |
| 20260906023028 | 22 | 195 | 0.0 | 0.0 | 0.00 | 0.79 | 0.79 | 96 | 1009.5 |
| 20260906022528 | 22 | 195 | 0.0 | 0.0 | 0.00 | 0.79 | 0.79 | 96 | 1009.5 |
| 20260906022028 | 22 | 195 | 0.0 | 0.0 | 0.00 | 0.79 | 0.79 | 96 | 1009.5 |
| 20260906021528 | 22 | 195 | 0.0 | 0.0 | 0.00 | 0.79 | 0.79 | 96 | 1009.3 |
| 20260906021027 | 22 | 195 | 0.0 | 0.0 | 0.00 | 0.79 | 0.79 | 96 | 1009.4 |
| 20260906020527 | 22 | 195 | 0.0 | 0.0 | 0.00 | 0.79 | 0.79 | 96 | 1009.3 |
| 20260906020032 | 22 | 195 | 0.0 | 0.0 | 0.00 | 0.79 | 0.79 | 96 | 1009.3 |
| 20260906015527 | 22 | 195 | 0.0 | 0.0 | 0.00 | 0.79 | 0.79 | 96 | 1009.4 |
| 20260906015027 | 22 | 195 | 0.0 | 0.0 | 0.00 | 0.79 | 0.79 | 96 | 1009.4 |
| 20260906014530 | 22 | 195 | 0.0 | 0.0 | 0.00 | 0.79 | 0.79 | 96 | 1009.3 |
| 20260906014029 | 22 | 195 | 0.0 | 0.0 | 0.00 | 0.79 | 0.79 | 96 | 1009.3 |
| 20260906013527 | 22 | 195 | 0.0 | 0.0 | 0.00 | 0.79 | 0.79 | 96 | 1009.4 |
| 20260906013026 | 22 | 195 | 0.0 | 0.0 | 0.00 | 0.79 | 0.79 | 96 | 1009.4 |
| 20260906012525 | 22 | 195 | 0.0 | 0.0 | 0.00 | 0.79 | 0.79 | 96 | 1009.4 |
| 20260906012025 | 22 | 195 | 0.0 | 1.6 | 0.00 | 0.79 | 0.79 | 96 | 1009.3 |
| 20260906011526 | 22 | 195 | 0.0 | 3.2 | 0.00 | 0.79 | 0.79 | 96 | 1009.1 |
| 20260906011030 | 22 | 195 | 0.0 | 0.0 | 0.00 | 0.79 | 0.79 | 96 | 1008.9 |
| 20260906010525 | 22 | 195 | 0.0 | 3.2 | 0.00 | 0.79 | 0.79 | 96 | 1008.8 |
| 20260906010025 | 22 | 195 | 0.0 | 3.2 | 0.00 | 0.79 | 0.79 | 96 | 1008.7 |
| 20260906005525 | 22 | 195 | 0.0 | 1.6 | 0.00 | 0.79 | 0.79 | 96 | 1008.4 |
| 20260906005025 | 22 | 195 | 0.0 | 1.6 | 0.00 | 0.79 | 0.79 | 95 | 1008.4 |
| 20260906004525 | 22 | 195 | 0.0 | 0.0 | 0.00 | 0.79 | 0.79 | 95 | 1008.2 |
| 20260906004024 | 22 | 195 | 0.0 | 0.0 | 0.00 | 0.79 | 0.79 | 95 | 1008.1 |
| 20260906003524 | 22 | 195 | 0.0 | 0.0 | 0.00 | 0.79 | 0.79 | 95 | 1008.0 |
| 20260906003027 | 22 | 195 | 0.0 | 0.0 | 0.00 | 0.79 | 0.79 | 95 | 1007.9 |
| 20260906002523 | 23 | 195 | 0.0 | 0.0 | 0.00 | 0.79 | 0.79 | 95 | 1007.8 |
| 20260906002024 | 23 | 195 | 0.0 | 0.0 | 0.00 | 0.79 | 0.79 | 95 | 1007.9 |
| 20260906001523 | 23 | 195 | 0.0 | 0.0 | 0.00 | 0.79 | 0.79 | 95 | 1007.7 |
| 20260906001023 | 23 | 195 | 0.0 | 0.0 | 0.00 | 0.79 | 0.79 | 95 | 1007.5 |
| 20260906000523 | 23 | 195 | 0.0 | 0.0 | 0.00 | 0.79 | 0.79 | 95 | 1007.5 |
| 20260906000023 | 23 | 195 | 0.0 | 0.0 | 0.00 | 0.79 | 0.79 | 95 | 1007.2 |
| 20260905235523 | 23 | 195 | 0.0 | 0.0 | 0.00 | 0.79 | 0.79 | 95 | 1007.0 |
| 20260905235023 | 23 | 195 | 0.0 | 0.0 | 0.00 | 0.79 | 0.79 | 95 | 1007.0 |
| 20260905234523 | 23 | 195 | 0.0 | 0.0 | 0.00 | 0.79 | 0.79 | 95 | 1007.0 |
| 20260905234031 | 23 | 195 | 0.0 | 0.0 | 0.00 | 0.79 | 0.79 | 94 | 1006.9 |
| 20260905233029 | 23 | 195 | 0.0 | 0.0 | 0.08 | 0.79 | 0.79 | 94 | 1007.0 |
| 20260905232521 | 23 | 195 | 0.0 | 0.0 | 0.15 | 0.79 | 0.79 | 94 | 1007.3 |
| 20260905232021 | 23 | 195 | 0.0 | 0.0 | 0.23 | 0.79 | 0.79 | 94 | 1007.3 |
| 20260905231521 | 23 | 195 | 0.0 | 0.0 | 0.30 | 0.79 | 0.79 | 94 | 1007.2 |
| 20260905231021 | 23 | 195 | 0.0 | 0.0 | 0.46 | 0.79 | 0.79 | 93 | 1007.4 |
| 20260905230524 | 23 | 195 | 0.0 | 0.0 | 0.48 | 0.79 | 0.79 | 93 | 1007.3 |
| 20260905230021 | 23 | 195 | 0.0 | 0.0 | 0.48 | 0.79 | 0.79 | 93 | 1007.4 |
| 20260905225520 | 23 | 195 | 0.0 | 3.2 | 0.48 | 0.79 | 0.79 | 93 | 1007.4 |
| 20260905225021 | 23 | 195 | 0.0 | 6.4 | 0.48 | 0.79 | 0.79 | 93 | 1007.6 |
| 20260905224520 | 23 | 195 | 0.0 | 6.4 | 0.48 | 0.79 | 0.79 | 92 | 1008.1 |
| 20260905224021 | 23 | 196 | 0.0 | 8.0 | 0.48 | 0.79 | 0.79 | 91 | 1008.5 |
| 20260905223520 | 23 | 196 | 1.6 | 8.0 | 0.43 | 0.71 | 0.71 | 90 | 1008.9 |
| 20260905223032 | 24 | 200 | 1.6 | 6.4 | 0.41 | 0.71 | 0.71 | 89 | 1009.1 |
| 20260905222520 | 25 | 203 | 0.0 | 1.6 | 0.33 | 0.64 | 0.64 | 87 | 1009.0 |
| 20260905222119 | 25 | 203 | 0.0 | 1.6 | 0.25 | 0.56 | 0.56 | 84 | 1009.4 |
| 20260905221535 | 27 | 203 | 0.0 | 9.7 | 0.18 | 0.48 | 0.48 | 76 | 1009.6 |
| 20260905221019 | 29 | 202 | 3.2 | 17.7 | 0.03 | 0.33 | 0.33 | 71 | 1009.1 |
| 20260905220518 | 30 | 211 | 3.2 | 17.7 | 0.00 | 0.30 | 0.30 | 63 | 1009.0 |
| 20260905220018 | 31 | 205 | 1.6 | 16.1 | 0.00 | 0.30 | 0.30 | 59 | 1008.4 |
| 20260905215524 | 32 | 186 | 0.0 | 11.3 | 0.00 | 0.30 | 0.30 | 60 | 1008.0 |
| 20260905215017 | 33 | 186 | 0.0 | 11.3 | 0.00 | 0.30 | 0.30 | 57 | 1007.0 |
| 20260905214517 | 33 | 173 | 1.6 | 9.7 | 0.00 | 0.30 | 0.30 | 56 | 1006.8 |
| 20260905214018 | 34 | 166 | 0.0 | 0.0 | 0.00 | 0.30 | 0.30 | 53 | 1006.8 |
| 20260905213519 | 35 | 166 | 0.0 | 0.0 | 0.00 | 0.30 | 0.30 | 51 | 1006.6 |
| 20260905213016 | 35 | 166 | 0.0 | 0.0 | 0.00 | 0.30 | 0.30 | 51 | 1006.4 |
| 20260905212516 | 36 | 166 | 0.0 | 0.0 | 0.00 | 0.30 | 0.30 | 50 | 1006.5 |
| 20260905212021 | 36 | 166 | 0.0 | 0.0 | 0.00 | 0.30 | 0.30 | 53 | 1006.6 |
| 20260905211534 | 36 | 166 | 0.0 | 0.0 | 0.00 | 0.30 | 0.30 | 48 | 1006.6 |
| 20260905211015 | 36 | 166 | 0.0 | 0.0 | 0.00 | 0.30 | 0.30 | 48 | 1006.6 |
| 20260905210515 | 36 | 166 | 0.0 | 0.0 | 0.00 | 0.30 | 0.30 | 45 | 1006.6 |
| 20260905210013 | 36 | 166 | 0.0 | 0.0 | 0.00 | 0.30 | 0.30 | 49 | 1006.8 |
| 20260905205513 | 36 | 166 | 0.0 | 0.0 | 0.00 | 0.30 | 0.30 | 53 | 1006.7 |
| 20260905205012 | 36 | 166 | 0.0 | 0.0 | 0.00 | 0.30 | 0.30 | 47 | 1006.9 |
| 20260905204511 | 36 | 166 | 0.0 | 0.0 | 0.00 | 0.30 | 0.30 | 45 | 1006.9 |
| 20260905204010 | 36 | 166 | 0.0 | 0.0 | 0.00 | 0.30 | 0.30 | 50 | 1007.0 |
| 20260905203511 | 36 | 166 | 0.0 | 0.0 | 0.00 | 0.30 | 0.30 | 50 | 1007.0 |
| 20260905203008 | 36 | 166 | 0.0 | 0.0 | 0.00 | 0.30 | 0.30 | 49 | 1007.0 |
| 20260905202505 | 36 | 166 | 0.0 | 0.0 | 0.00 | 0.30 | 0.30 | 53 | 1007.2 |
| 20260905202004 | 36 | 166 | 0.0 | 0.0 | 0.00 | 0.30 | 0.30 | 51 | 1007.2 |
| 20260905201504 | 35 | 166 | 0.0 | 1.6 | 0.00 | 0.30 | 0.30 | 48 | 1007.3 |
| 20260905201002 | 35 | 166 | 0.0 | 1.6 | 0.00 | 0.30 | 0.30 | 56 | 1007.3 |
| 20260905200501 | 36 | 166 | 0.0 | 0.0 | 0.00 | 0.30 | 0.30 | 52 | 1007.3 |
| 20260905200137 | 35 | 166 | 0.0 | 0.0 | 0.00 | 0.30 | 0.30 | 48 | 1007.4 |
| 20260905195601 | 35 | 166 | 0.0 | 0.0 | 0.00 | 0.30 | 0.30 | 54 | 1007.4 |
| 20260905195058 | 35 | 166 | 0.0 | 0.0 | 0.00 | 0.30 | 0.30 | 49 | 1007.4 |
| 20260905194601 | 35 | 166 | 0.0 | 0.0 | 0.00 | 0.30 | 0.30 | 52 | 1007.4 |
| 20260905194056 | 35 | 166 | 0.0 | 0.0 | 0.00 | 0.30 | 0.30 | 56 | 1007.5 |
| 20260905193556 | 35 | 166 | 0.0 | 0.0 | 0.00 | 0.30 | 0.30 | 52 | 1007.6 |
| 20260905193053 | 35 | 166 | 0.0 | 0.0 | 0.00 | 0.30 | 0.30 | 52 | 1007.6 |
| 20260905192552 | 35 | 166 | 0.0 | 0.0 | 0.00 | 0.30 | 0.30 | 53 | 1007.7 |
| 20260905192054 | 35 | 166 | 0.0 | 0.0 | 0.00 | 0.30 | 0.30 | 52 | 1007.7 |
| 20260905191550 | 35 | 166 | 0.0 | 4.8 | 0.00 | 0.30 | 0.30 | 59 | 1007.8 |
| 20260905191050 | 35 | 166 | 0.0 | 8.0 | 0.00 | 0.30 | 0.30 | 56 | 1008.0 |
| 20260905190547 | 34 | 168 | 0.0 | 4.8 | 0.00 | 0.30 | 0.30 | 55 | 1008.0 |
| 20260905190046 | 35 | 168 | 0.0 | 6.4 | 0.00 | 0.30 | 0.30 | 52 | 1008.1 |
| 20260905185545 | 35 | 168 | 0.0 | 0.0 | 0.00 | 0.30 | 0.30 | 59 | 1008.1 |
| 20260905185048 | 35 | 168 | 0.0 | 0.0 | 0.00 | 0.30 | 0.30 | 53 | 1008.2 |
| 20260905184542 | 35 | 168 | 0.0 | 0.0 | 0.00 | 0.30 | 0.30 | 55 | 1008.2 |
| 20260905184040 | 34 | 168 | 0.0 | 0.0 | 0.00 | 0.30 | 0.30 | 58 | 1008.2 |
| 20260905183539 | 33 | 168 | 0.0 | 0.0 | 0.00 | 0.30 | 0.30 | 58 | 1008.4 |
| 20260905183037 | 33 | 168 | 0.0 | 0.0 | 0.00 | 0.30 | 0.30 | 55 | 1008.4 |
| 20260905182539 | 33 | 168 | 0.0 | 0.0 | 0.00 | 0.30 | 0.30 | 58 | 1008.5 |
| 20260905182036 | 33 | 168 | 0.0 | 0.0 | 0.00 | 0.30 | 0.30 | 59 | 1008.6 |
| 20260905181535 | 34 | 168 | 0.0 | 0.0 | 0.00 | 0.30 | 0.30 | 57 | 1008.6 |
| 20260905181034 | 34 | 169 | 0.0 | 0.0 | 0.00 | 0.30 | 0.30 | 56 | 1008.6 |
| 20260905180533 | 33 | 168 | 0.0 | 0.0 | 0.00 | 0.30 | 0.30 | 54 | 1008.7 |
| 20260905180035 | 33 | 168 | 0.0 | 0.0 | 0.00 | 0.30 | 0.30 | 56 | 1008.8 |
| 20260905175530 | 34 | 168 | 0.0 | 0.0 | 0.00 | 0.30 | 0.30 | 59 | 1008.8 |
| 20260905175029 | 33 | 168 | 0.0 | 0.0 | 0.00 | 0.30 | 0.30 | 55 | 1008.8 |
| 20260905174529 | 33 | 168 | 0.0 | 0.0 | 0.00 | 0.30 | 0.30 | 56 | 1008.9 |
| 20260905174026 | 33 | 169 | 0.0 | 0.0 | 0.00 | 0.30 | 0.30 | 60 | 1009.0 |
| 20260905173525 | 33 | 168 | 0.0 | 0.0 | 0.00 | 0.30 | 0.30 | 59 | 1009.1 |
| 20260905173024 | 33 | 168 | 0.0 | 0.0 | 0.00 | 0.30 | 0.30 | 61 | 1009.1 |
| 20260905172521 | 33 | 169 | 0.0 | 0.0 | 0.00 | 0.30 | 0.30 | 59 | 1009.2 |
| 20260905172022 | 33 | 168 | 0.0 | 0.0 | 0.00 | 0.30 | 0.30 | 62 | 1009.3 |
| 20260905171535 | 33 | 168 | 0.0 | 0.0 | 0.00 | 0.30 | 0.30 | 62 | 1009.3 |
| 20260905171021 | 33 | 169 | 0.0 | 1.6 | 0.00 | 0.30 | 0.30 | 65 | 1009.4 |
| 20260905170515 | 33 | 169 | 0.0 | 8.0 | 0.00 | 0.30 | 0.30 | 62 | 1009.4 |
| 20260905170014 | 33 | 169 | 1.6 | 8.0 | 0.00 | 0.30 | 0.30 | 59 | 1009.5 |
| 20260905165513 | 33 | 168 | 0.0 | 0.0 | 0.00 | 0.30 | 0.30 | 67 | 1009.5 |
| 20260905165012 | 33 | 168 | 0.0 | 0.0 | 0.00 | 0.30 | 0.30 | 63 | 1009.5 |
| 20260905164511 | 33 | 168 | 0.0 | 0.0 | 0.00 | 0.30 | 0.30 | 61 | 1009.6 |
| 20260905164009 | 33 | 168 | 0.0 | 0.0 | 0.00 | 0.30 | 0.30 | 67 | 1009.6 |
| 20260905163507 | 32 | 168 | 0.0 | 0.0 | 0.00 | 0.30 | 0.30 | 64 | 1009.6 |
| 20260905163109 | 32 | 168 | 0.0 | 0.0 | 0.00 | 0.30 | 0.30 | 66 | 1009.8 |